TimeCDT,TemperatureF,Dew PointF,Humidity,Sea Level PressureIn,VisibilityMPH,Wind Direction,Wind SpeedMPH,Gust SpeedMPH,PrecipitationIn,Events,Conditions,WindDirDegrees,DateUTC
12:15 AM,48.2,27.1,44,29.89,10.0,NE,8.1,-,N/A,,Clear,50,2013-10-21 05:15:00
12:35 AM,47.5,27.5,46,29.90,10.0,East,6.9,-,N/A,,Clear,100,2013-10-21 05:35:00
12:55 AM,48.2,27.5,45,29.90,10.0,ESE,4.6,-,N/A,,Clear,110,2013-10-21 05:55:00
1:15 AM,48.0,27.3,45,29.90,10.0,ESE,5.8,-,N/A,,Clear,120,2013-10-21 06:15:00
1:35 AM,48.7,28.2,45,29.90,10.0,SE,3.5,-,N/A,,Clear,140,2013-10-21 06:35:00
1:55 AM,48.4,28.4,46,29.91,10.0,Calm,Calm,-,N/A,,Clear,0,2013-10-21 06:55:00
2:15 AM,49.3,28.8,45,29.91,10.0,Calm,Calm,-,N/A,,Clear,0,2013-10-21 07:15:00
2:35 AM,46.0,27.7,49,29.91,10.0,SW,3.5,-,N/A,,Clear,230,2013-10-21 07:35:00
2:55 AM,46.8,27.7,47,29.91,10.0,WSW,3.5,-,N/A,,Clear,250,2013-10-21 07:55:00
3:15 AM,43.9,27.7,53,29.91,10.0,Calm,Calm,-,N/A,,Clear,0,2013-10-21 08:15:00
3:35 AM,44.8,27.5,51,29.91,10.0,SW,6.9,-,N/A,,Clear,230,2013-10-21 08:35:00
3:55 AM,42.4,27.9,56,29.91,10.0,Calm,Calm,-,N/A,,Clear,0,2013-10-21 08:55:00
4:15 AM,46.6,27.0,46,29.93,10.0,NNW,12.7,21.9,N/A,,Clear,330,2013-10-21 09:15:00
4:35 AM,47.8,26.6,44,29.93,10.0,WNW,4.6,-,N/A,,Clear,300,2013-10-21 09:35:00
4:55 AM,45.7,26.2,47,29.94,10.0,NW,11.5,-,N/A,,Clear,310,2013-10-21 09:55:00
5:15 AM,49.1,25.3,40,29.96,10.0,NW,15.0,-,N/A,,Clear,320,2013-10-21 10:15:00
5:35 AM,49.8,33.1,53,29.99,10.0,NW,17.3,-,N/A,,Clear,320,2013-10-21 10:35:00
5:55 AM,50.9,29.8,44,30.00,10.0,NNW,16.1,-,N/A,,Clear,330,2013-10-21 10:55:00
6:15 AM,50.9,29.7,44,30.02,10.0,NW,17.3,-,N/A,,Clear,320,2013-10-21 11:15:00
6:35 AM,50.4,30.2,46,30.03,10.0,NW,15.0,-,N/A,,Clear,320,2013-10-21 11:35:00
6:55 AM,50.4,31.1,48,30.05,10.0,NW,17.3,-,N/A,,Clear,320,2013-10-21 11:55:00
7:15 AM,50.0,32.0,50,30.06,10.0,NW,16.1,-,N/A,,Clear,310,2013-10-21 12:15:00
7:35 AM,49.6,32.5,52,30.07,10.0,NW,13.8,-,N/A,,Clear,310,2013-10-21 12:35:00
7:55 AM,49.3,33.8,55,30.10,10.0,WNW,10.4,-,N/A,,Clear,290,2013-10-21 12:55:00
8:15 AM,49.1,34.5,57,30.11,10.0,WNW,11.5,-,N/A,,Clear,290,2013-10-21 13:15:00
8:35 AM,49.8,35.2,57,30.12,10.0,WNW,11.5,-,N/A,,Clear,300,2013-10-21 13:35:00
8:55 AM,51.3,36.1,56,30.12,10.0,WNW,15.0,19.6,N/A,,Clear,300,2013-10-21 13:55:00
9:15 AM,52.7,36.5,54,30.14,10.0,NW,16.1,-,N/A,,Clear,310,2013-10-21 14:15:00
9:35 AM,54.3,37.0,52,30.15,10.0,NW,17.3,21.9,N/A,,Clear,310,2013-10-21 14:35:00
9:55 AM,55.0,36.7,50,30.16,10.0,NW,19.6,24.2,N/A,,Clear,320,2013-10-21 14:55:00
10:15 AM,55.8,36.5,48,30.17,10.0,NNW,15.0,23.0,N/A,,Clear,330,2013-10-21 15:15:00
10:35 AM,57.2,36.9,47,30.17,10.0,NNW,16.1,23.0,N/A,,Clear,330,2013-10-21 15:35:00
10:55 AM,57.7,37.0,46,30.17,10.0,NNW,15.0,18.4,N/A,,Clear,340,2013-10-21 15:55:00
11:15 AM,58.5,36.9,45,30.17,10.0,NNW,18.4,-,N/A,,Clear,330,2013-10-21 16:15:00
11:35 AM,60.4,37.4,42,30.17,10.0,NNW,16.1,-,N/A,,Clear,330,2013-10-21 16:35:00
11:55 AM,61.2,37.6,42,30.16,10.0,NNW,11.5,19.6,N/A,,Clear,330,2013-10-21 16:55:00
12:15 PM,61.7,37.8,41,30.17,10.0,NNW,9.2,17.3,N/A,,Clear,330,2013-10-21 17:15:00
12:35 PM,63.3,37.9,39,30.16,10.0,NW,8.1,-,N/A,,Clear,320,2013-10-21 17:35:00
12:55 PM,63.5,38.3,39,30.16,10.0,NW,8.1,17.3,N/A,,Clear,320,2013-10-21 17:55:00
1:15 PM,64.6,38.1,38,30.15,10.0,NW,9.2,16.1,N/A,,Clear,320,2013-10-21 18:15:00
1:35 PM,65.3,38.8,38,30.14,10.0,North,12.7,-,N/A,,Clear,360,2013-10-21 18:35:00
1:55 PM,66.2,38.8,37,30.12,10.0,North,15.0,19.6,N/A,,Clear,360,2013-10-21 18:55:00
2:15 PM,66.9,38.8,36,30.12,10.0,NW,8.1,-,N/A,,Clear,320,2013-10-21 19:15:00
2:35 PM,67.5,38.8,35,30.11,10.0,North,6.9,16.1,N/A,,Clear,350,2013-10-21 19:35:00
2:55 PM,67.6,39.0,35,30.10,10.0,North,12.7,16.1,N/A,,Clear,360,2013-10-21 19:55:00
3:15 PM,69.4,39.2,33,30.09,10.0,NW,9.2,19.6,N/A,,Clear,320,2013-10-21 20:15:00
3:35 PM,68.5,39.2,34,30.09,10.0,NNW,12.7,20.7,N/A,,Clear,340,2013-10-21 20:35:00
3:55 PM,69.8,39.4,33,30.09,10.0,North,8.1,16.1,N/A,,Clear,10,2013-10-21 20:55:00
4:15 PM,70.2,39.2,32,30.09,10.0,North,8.1,16.1,N/A,,Clear,350,2013-10-21 21:15:00
4:35 PM,70.9,39.0,31,30.09,10.0,North,12.7,-,N/A,,Clear,360,2013-10-21 21:35:00
4:55 PM,71.1,39.2,31,30.08,10.0,NNE,9.2,-,N/A,,Clear,30,2013-10-21 21:55:00
5:15 PM,70.9,38.8,31,30.08,10.0,NNE,6.9,-,N/A,,Clear,30,2013-10-21 22:15:00
5:35 PM,70.7,38.5,31,30.09,10.0,NNE,5.8,-,N/A,,Clear,20,2013-10-21 22:35:00
5:55 PM,70.2,38.7,32,30.08,10.0,North,6.9,-,N/A,,Clear,350,2013-10-21 22:55:00
6:15 PM,69.8,38.3,32,30.09,10.0,NE,4.6,-,N/A,,Clear,50,2013-10-21 23:15:00
6:35 PM,68.9,38.3,33,30.09,10.0,NNE,5.8,-,N/A,,Clear,20,2013-10-21 23:35:00
6:55 PM,67.8,37.9,33,30.09,10.0,NNE,5.8,-,N/A,,Clear,30,2013-10-21 23:55:00
7:15 PM,66.0,37.6,35,30.10,10.0,NNE,4.6,-,N/A,,Clear,30,2013-10-22 00:15:00
7:35 PM,64.4,37.4,37,30.11,10.0,NE,5.8,-,N/A,,Clear,40,2013-10-22 00:35:00
7:55 PM,62.6,37.2,39,30.12,10.0,NE,4.6,-,N/A,,Clear,50,2013-10-22 00:55:00
8:15 PM,60.8,37.4,42,30.13,10.0,NE,4.6,-,N/A,,Clear,50,2013-10-22 01:15:00
8:35 PM,59.5,37.4,44,30.13,10.0,ENE,4.6,-,N/A,,Clear,60,2013-10-22 01:35:00
8:55 PM,58.5,37.6,46,30.14,10.0,ENE,6.9,-,N/A,,Clear,60,2013-10-22 01:55:00
9:15 PM,57.2,37.4,48,30.15,5.0,NE,6.9,-,N/A,,Haze,50,2013-10-22 02:15:00
9:35 PM,56.3,37.8,50,30.16,7.0,ENE,5.8,-,N/A,,Clear,60,2013-10-22 02:35:00
9:55 PM,55.4,37.9,52,30.16,5.0,ENE,5.8,-,N/A,,Haze,60,2013-10-22 02:55:00
10:15 PM,54.5,38.1,54,30.16,4.0,ENE,4.6,-,N/A,,Haze,70,2013-10-22 03:15:00
10:35 PM,54.5,38.5,55,30.17,7.0,ENE,4.6,-,N/A,,Clear,60,2013-10-22 03:35:00
10:55 PM,54.1,38.8,56,30.19,10.0,NE,4.6,-,N/A,,Clear,50,2013-10-22 03:55:00
11:15 PM,53.6,38.8,57,30.19,10.0,NE,4.6,-,N/A,,Clear,50,2013-10-22 04:15:00
11:35 PM,53.1,38.7,58,30.19,7.0,ENE,3.5,-,N/A,,Clear,70,2013-10-22 04:35:00
11:55 PM,52.5,39.2,61,30.20,7.0,NE,3.5,-,N/A,,Clear,40,2013-10-22 04:55:00